{"data":{"norad_id":65566,"intl_designator":"2025-203B","name":"PRAETORIAN SDA_603","alt_names":[],"object_type":"PAYLOAD","status":"ACTIVE","operator":null,"country":"US","launch_date":"2025-09-10","launch_site_code":"AFWTR","launch_vehicle":null,"mission":null,"orbit_class":"UNKNOWN","rcs_meters":null,"size_class":null,"mass_kg":null,"dimensions":null,"purposes":["military"],"wikipedia_slug":null,"has_3d_model":false,"image_url":null,"decayed_at":null,"tle_current":{"epoch":"2026-05-25T03:10:01.267104Z","epoch_age_seconds":63393,"freshness":"FRESH","line1":"1 65566U 25203B   26145.13195911  .00000191  00000+0  16155-3 0  9999","line2":"2 65566  81.3053  32.0254 0008542 255.6521 104.3687 13.83902948 35511","mean_motion":13.83902948,"eccentricity":0.0008542,"inclination_deg":81.3053,"raan_deg":32.0254,"arg_perigee_deg":255.6521,"mean_anomaly_deg":104.3687,"bstar":0.00016155,"rev_number":3551,"period_min":104.05353945384,"perigee_km":943.81625857083,"apogee_km":956.335777691,"semimajor_km":7328.2130181309,"source":"CELESTRAK","updated_at":"2026-05-25T13:38:25.166501Z"}}}